San Marcos, TX (78666)

7:20 AM CDT on October 31, 2014 (GMT -0500)
Spring Lake Hills | Change Station
CLOSE
Current Station
Personal Weather Station
Location: San Marcos, TX
Elevation: 768 ft
Nearby Weather Stations

Elev 768 ft 29.90 °N, 97.94 °W | Updated 15 seconds ago

Partly Cloudy
Partly Cloudy
60.3 °F
Feels Like 60.3 °F
N
4.0
Wind Variable Wind from NE
Gusts 4.9 mph

Today
High -- | Low -- °F
--% Chance of Precip.
Yesterday
High -- | Low -- °F
Precip. -- in
7:44 AM 6:45 PM
First Quarter, 54% visible
Pressure 30.20 in
Visibility 7.0 miles
Clouds Clear
Dew Point 60 °F
Humidity 99%
Rainfall 0.20 in
Snow Depth Not available.
UV 0 out of 12
Pollen 5.70 out of 12
Air Quality Not available.
Flu Activity Not available.
METAR KHYI 311145Z 36006KT 7SM CLR 17/13 A3020 RMK FIRST

More Conditions Fewer Conditions

Pressure 30.20 in
Visibility 7.0 miles
Clouds Clear
Dew Point 60 °F
Humidity 99%
Rainfall 0.20 in
Snow Depth Not available.
UV 0 out of 12
Pollen 5.70 out of 12
Air Quality Not available.
Flu Activity Not available.
METAR KHYI 311145Z 36006KT 7SM CLR 17/13 A3020 RMK FIRST

More Conditions Fewer Conditions

10-Day Weather Forecast

Almanac

Astronomy

Oct. 31, 2014 Rise Set
Actual Time
Civil Twilight
Nautical Twilight
Astronomical Twilight
Moon
Length of Visible Light
Length of Day
Tomorrow will be .
, % of the Moon is Illuminated

Today's Extremes

State Highs State Lows

Community

WunderPhotos

Upload Photos

1,766,592 photos uploaded!

WunderBlogs® & News

Nearby

Air Quality

  Air Quality AQ Index Pollutant
Not available.

Snow Depth

Station Depth Elevation

Earthquake Activity

City Distance Mag. Time & Date
Minimum magnitude displayed is 2.5.

Coastal Water Temperatures

Place Temperature

Nearby Weather Stations